Regional Weather Roundup
Issued by NWS Sioux Falls, SD

Home | Current Version | Previous Version | Text Only | Print | Product List | Glossary Off
Versions: 1 2 3 4 5 6 7 8 9 10 11 12 13 14 15 16 17 18 19 20 21 22 23 24 25 26 27 28 29 30 31 32 33 34 35 36 37 38 39 40 41 42 43 44 45 46 47 48 49 50

000
ASUS43 KFSD 180410
RWRFSD

WEATHER ROUNDUP FOR SE SOUTH DAKOTA/SW MINNESOTA/NW IOWA
NATIONAL WEATHER SERVICE SIOUX FALLS SD
1100 PM CDT THU APR 17 2014

NOTE: "FAIR" INDICATES FEW OR NO CLOUDS BELOW 12,000 FEET WITH NO
SIGNIFICANT WEATHER AND OR OBSTRUCTIONS TO VISIBILITY.


SDZ038>040-050-052>070-180500-
SOUTHEAST SOUTH DAKOTA

CITY           SKY/WX    TMP DP  RH WIND       PRES   REMARKS
CHAMBERLAIN      N/A     39  27  62 SE20      30.14F
HURON          CLOUDY    39  28  64 SE10      30.21F
MADISON        MIX PCPN  34  21  60 E12       30.25F WCI  25
MITCHELL       PTCLDY    39  26  59 E13       30.22F
SIOUX FALLS    CLOUDY    38  25  59 E8        30.26F
WINNER         FAIR      37  23  56 SE16      30.11F
YANKTON        MOCLDY    39  25  56 E8        30.25S
$$

MNZ071-072-080-081-089-090-097-098-180500-
SOUTHWEST MINNESOTA

CITY           SKY/WX    TMP DP  RH WIND       PRES   REMARKS
FAIRMONT       CLEAR     32  28  86 CALM      30.32S
JACKSON        PTCLDY    32  27  80 NE6       30.30S WCI  26
LUVERNE        MOCLDY    36  28  75 NE5       30.29S
MARSHALL       CLOUDY    30  21  69 S6        30.30S WCI  24
MONTEVIDEO     CLEAR     28  21  74 W3        30.31S
PIPESTONE      MOCLDY    32  25  74 E7        30.27S WCI  26
REDWOOD FALLS  CLEAR     31  25  78 SW3       30.31S
TRACY          PTCLDY    31  26  81 CALM      30.30F
WINDOM         CLEAR     28  27  93 CALM      30.30S
WORTHINGTON    PTCLDY    32  23  69 NE6       30.30S WCI  26
$$

IAZ001>003-012>014-020>022-031-032-NEZ013-014-SDZ071-180500-
NORTHWEST IOWA

CITY           SKY/WX    TMP DP  RH WIND       PRES   REMARKS
CHEROKEE       PTCLDY    36  27  70 E7        30.28S
DENISON        MOCLDY    39  27  60 CALM      30.27R
ESTHERVILLE    CLEAR     28  27  96 NE7       30.29S WCI  21
LE MARS        CLOUDY    45  28  53 E9G15     30.27S
ORANGE CITY    CLOUDY    39  28  65 E6        30.27S
SHELDON        CLOUDY    34  28  80 NE8       30.28R WCI  27
SIOUX CITY     PTCLDY    42  26  53 E7        30.26S
SPENCER        CLEAR     31  27  85 NE6       30.29S WCI  25
STORM LAKE     MOCLDY    36  28  75 E10       30.28S
$$

ABBREVIATIONS USED IN REMARKS
   TC - TEMPERATURE IN CELSIUS
  WCI - WIND CHILL INDEX
   HX - HEAT INDEX
  VSB - VISIBILITY




USA.gov is the U.S. government's official web portal to all federal, state and local government web resources and services.